Date String (YYYY-MM-DD hh:mm:ss) UTC,Instrument flags,absolute air pressure of the measurement (hPa),sample flow rate (lpm),inlet stack bypass flow (lpm),air temperature of the measurement (°C),ambient temperature measured by the external sensor (°C),aerosol sample conditioner tube jacket temperature (°C),OPC LED temperature (°C),internal box temperature (°C),relative humidity of the measurement (%),span deviation,mass concentration of particles derived from Lorenz-Mie calculation of OPC scattering (μg/m³),mass concentration of particles derived from Lorenz-Mie calculation of OPC scattering (μg/m³),mass concentration of particles derived from Lorenz-Mie calculation of OPC scattering (μg/m³)
DateTimeUTC,F1_M11,P_M11,Q1_M11,Q2_M11,T1_M11,T2_M11,T3_M11,T4_M11,T5_M11,U1_M11,ZSPAN_M11,X2_M11,X0_M11,X1_M11
2023-11-26 01:00:00,SystemResetWarning,0828.6,5.01,000.00,018.8,018.1,000.0,027.2,020.0,13.1,0001.1,0008.60,0011.00,0008.17
2023-11-26 01:01:00,SystemResetWarning,0828.6,5.01,000.00,018.8,018.0,000.0,027.2,020.0,13.1,0000.9,0008.62,0011.01,0008.20
2023-11-26 01:02:00,SystemResetWarning,0828.6,5.01,000.00,018.8,018.0,000.0,027.2,020.0,13.1,0001.0,0008.67,0011.11,0008.24
2023-11-26 01:03:00,SystemResetWarning,0828.7,5.00,000.00,018.8,017.9,000.0,027.2,020.0,13.2,0001.3,0008.69,0011.05,0008.28
2023-11-26 01:04:00,SystemResetWarning,0828.7,4.99,000.00,018.8,017.9,000.0,027.2,020.0,13.2,0001.4,0008.70,0011.01,0008.29
2023-11-26 01:05:00,SystemResetWarning,0828.6,4.99,000.00,018.8,017.8,000.0,027.2,020.0,13.2,0001.6,0008.73,0011.06,0008.31
2023-11-26 01:06:00,SystemResetWarning,0828.7,4.99,000.00,018.7,017.8,000.0,027.2,020.0,13.2,0001.6,0008.79,0011.20,0008.34
2023-11-26 01:07:00,SystemResetWarning,0828.7,5.01,000.00,018.7,017.7,000.0,027.2,020.0,13.2,0001.7,0008.83,0011.45,0008.37
2023-11-26 01:08:00,SystemResetWarning,0828.7,5.00,000.00,018.7,017.7,000.0,027.2,020.0,13.2,0001.6,0008.90,0011.70,0008.41
2023-11-26 01:09:00,SystemResetWarning,0828.7,5.00,000.00,018.7,017.6,000.0,027.2,020.0,13.2,0001.6,0008.93,0011.85,0008.42
2023-11-26 01:10:00,SystemResetWarning,0828.7,5.01,000.00,018.7,017.6,000.0,027.2,020.1,13.3,0001.3,0008.93,0011.82,0008.44
2023-11-26 01:11:00,SystemResetWarning,0828.7,5.00,000.00,018.8,018.0,000.0,027.2,020.4,13.2,0001.2,0008.96,0011.75,0008.48
2023-11-26 01:12:00,SystemResetWarning,0828.7,4.99,000.00,018.9,018.8,000.0,027.2,020.8,13.1,0001.2,0009.01,0011.80,0008.52
2023-11-26 01:13:00,SystemResetWarning,0828.7,5.00,000.00,019.0,018.9,000.0,027.2,020.4,13.1,0001.5,0009.03,0011.77,0008.54
2023-11-26 01:14:00,SystemResetWarning,0828.7,5.00,000.00,018.9,018.7,000.0,027.2,020.1,13.2,0001.5,0009.05,0011.74,0008.56
2023-11-26 01:15:00,SystemResetWarning,0828.7,5.01,000.00,018.9,018.6,000.0,027.2,020.0,13.2,0001.4,0009.06,0011.74,0008.57
2023-11-26 01:16:00,SystemResetWarning,0828.7,5.01,000.00,018.8,018.4,000.0,027.2,020.0,13.2,0001.3,0009.07,0011.79,0008.56
2023-11-26 01:17:00,SystemResetWarning,0828.7,5.01,000.00,018.8,018.3,000.0,027.2,020.0,13.3,0001.8,0009.05,0011.82,0008.55
2023-11-26 01:18:00,SystemResetWarning,0828.8,5.00,000.00,018.8,018.2,000.0,027.2,020.0,13.3,0001.6,0009.05,0011.64,0008.55
2023-11-26 01:19:00,SystemResetWarning,0828.7,5.00,000.00,018.8,018.1,000.0,027.2,020.0,13.3,0001.7,0009.02,0011.46,0008.54
2023-11-26 01:20:00,SystemResetWarning,0828.7,5.00,000.00,018.8,018.0,000.0,027.2,020.0,13.3,0002.1,0008.99,0011.30,0008.55
2023-11-26 01:21:00,SystemResetWarning,0828.6,5.00,000.00,018.8,017.9,000.0,027.2,020.0,13.3,0002.1,0009.03,0011.35,0008.57
2023-11-26 01:22:00,SystemResetWarning,0828.6,5.00,000.00,018.8,017.9,000.0,027.2,020.0,13.3,0002.3,0009.00,0011.27,0008.55
2023-11-26 01:23:00,SystemResetWarning,0828.6,4.99,000.00,018.8,017.8,000.0,027.2,020.0,13.4,0002.7,0009.00,0011.33,0008.54
2023-11-26 01:24:00,SystemResetWarning,0828.7,5.00,000.00,018.7,017.7,000.0,027.2,020.0,13.4,0002.6,0009.02,0011.45,0008.54
2023-11-26 01:25:00,SystemResetWarning,0828.7,5.00,000.00,018.7,017.7,000.0,027.2,020.0,13.4,0002.6,0009.04,0011.56,0008.55
2023-11-26 01:26:00,SystemResetWarning,0828.7,5.00,000.00,018.7,017.6,000.0,027.2,020.0,13.4,0002.9,0009.05,0011.56,0008.56
2023-11-26 01:27:00,SystemResetWarning,0828.7,5.00,000.00,018.7,017.6,000.0,027.2,020.0,13.3,0002.9,0009.06,0011.55,0008.59
2023-11-26 01:28:00,SystemResetWarning,0828.7,5.00,000.00,018.7,017.6,000.0,027.2,020.0,13.3,0002.5,0009.08,0011.74,0008.61
2023-11-26 01:29:00,SystemResetWarning,0828.7,5.00,000.00,018.7,017.7,000.0,027.2,020.2,13.3,0002.7,0009.12,0011.90,0008.63
2023-11-26 01:30:00,SystemResetWarning,0828.8,5.02,000.00,018.8,018.3,000.0,027.2,020.6,13.3,0002.9,0009.14,0011.91,0008.65
2023-11-26 01:31:00,SystemResetWarning,0828.8,4.98,000.00,019.0,019.0,000.0,027.2,020.8,13.2,0002.8,0009.16,0011.96,0008.67
2023-11-26 01:32:00,SystemResetWarning,0828.8,5.00,000.00,019.0,018.9,000.0,027.2,020.4,13.2,0003.0,0009.15,0012.22,0008.68
2023-11-26 01:33:00,SystemResetWarning,0828.8,5.01,000.00,018.9,018.8,000.0,027.2,020.1,13.3,0003.0,0009.17,0012.28,0008.69
2023-11-26 01:34:00,SystemResetWarning,0828.8,5.00,000.00,018.9,018.6,000.0,027.2,020.0,13.3,0002.8,0009.15,0012.47,0008.69
2023-11-26 01:35:00,SystemResetWarning,0828.8,5.00,000.00,018.9,018.5,000.0,027.2,020.0,13.3,0002.4,0009.15,0012.40,0008.70
2023-11-26 01:36:00,SystemResetWarning,0828.8,5.00,000.00,018.9,018.4,000.0,027.2,020.0,13.3,0002.2,0009.13,0012.32,0008.70
2023-11-26 01:37:00,SystemResetWarning,0828.7,4.99,000.00,018.8,018.2,000.0,027.2,020.0,13.3,0001.9,0009.11,0012.31,0008.69
2023-11-26 01:38:00,SystemResetWarning,0828.8,4.99,000.00,018.8,018.1,000.0,027.2,020.0,13.3,0002.0,0009.11,0012.32,0008.68
2023-11-26 01:39:00,SystemResetWarning,0828.8,4.99,000.00,018.8,018.1,000.0,027.2,020.0,13.4,0002.1,0009.10,0012.17,0008.66
2023-11-26 01:40:00,SystemResetWarning,0828.8,5.01,000.00,018.8,018.0,000.0,027.2,020.0,13.4,0002.1,0009.09,0012.03,0008.66
2023-11-26 01:41:00,SystemResetWarning,0828.8,5.01,000.00,018.8,017.9,000.0,027.2,020.0,13.5,0001.9,0009.08,0012.43,0008.66
2023-11-26 01:42:00,SystemResetWarning,0828.8,5.00,000.00,018.8,017.9,000.0,027.2,020.0,13.5,0001.7,0009.10,0012.54,0008.67
2023-11-26 01:43:00,SystemResetWarning,0828.8,5.00,000.00,018.7,017.8,000.0,027.2,020.0,13.5,0001.5,0009.13,0012.31,0008.69
2023-11-26 01:44:00,SystemResetWarning,0828.8,5.00,000.00,018.7,017.8,000.0,027.2,020.0,13.4,0001.5,0009.17,0012.32,0008.72
2023-11-26 01:45:00,SystemResetWarning,0828.7,5.00,000.00,018.7,017.7,000.0,027.2,020.0,13.4,0001.6,0009.19,0012.13,0008.72
2023-11-26 01:46:00,SystemResetWarning,0828.8,5.00,000.00,018.7,017.7,000.0,027.2,020.0,13.4,0001.6,0009.19,0012.02,0008.73
2023-11-26 01:47:00,SystemResetWarning,0828.7,5.00,000.00,018.7,017.6,000.0,027.2,020.0,13.4,0002.1,0009.19,0012.04,0008.73
2023-11-26 01:48:00,SystemResetWarning,0828.7,5.00,000.00,018.7,017.6,000.0,027.2,020.0,13.3,0002.1,0009.20,0012.04,0008.73
2023-11-26 01:49:00,SystemResetWarning,0828.8,5.01,000.00,018.8,017.8,000.0,027.2,020.3,13.3,0001.6,0009.21,0012.06,0008.75
2023-11-26 01:50:00,SystemResetWarning,0828.7,5.01,000.00,018.9,018.6,000.0,027.2,020.7,13.2,0001.6,0009.23,0012.00,0008.79
2023-11-26 01:51:00,SystemResetWarning,0828.8,4.99,000.00,019.0,019.1,000.0,027.2,020.8,13.1,0001.8,0009.26,0012.06,0008.83
2023-11-26 01:52:00,SystemResetWarning,0828.7,5.00,000.00,019.0,019.0,000.0,027.2,020.5,13.0,0001.9,0009.27,0011.74,0008.86
2023-11-26 01:53:00,SystemResetWarning,0828.8,4.99,000.00,019.0,018.9,000.0,027.2,020.3,13.1,0001.8,0009.31,0011.65,0008.88
2023-11-26 01:54:00,SystemResetWarning,0828.9,5.01,000.00,019.0,018.7,000.0,027.2,020.2,13.1,0001.9,0009.31,0011.64,0008.88
2023-11-26 01:55:00,SystemResetWarning,0828.9,5.00,000.00,018.9,018.6,000.0,027.2,020.2,13.1,0002.1,0009.33,0011.72,0008.89
2023-11-26 01:56:00,SystemResetWarning,0829.0,5.00,000.00,018.9,018.5,000.0,027.2,020.1,13.1,0002.0,0009.35,0011.77,0008.91
2023-11-26 01:57:00,SystemResetWarning,0829.0,5.00,000.00,018.9,018.4,000.0,027.2,020.1,13.1,0001.9,0009.39,0011.81,0008.93
2023-11-26 01:58:00,SystemResetWarning,0829.0,5.00,000.00,018.9,018.3,000.0,027.2,020.0,13.2,0001.7,0009.40,0011.80,0008.95
2023-11-26 01:59:00,SystemResetWarning,0828.9,5.00,000.00,018.9,018.2,000.0,027.2,020.0,13.2,0001.7,0009.43,0011.84,0008.97
